Regional Weather Roundup
Issued by NWS

Home | Current Version | Previous Version | Text Only | Print | Product List | Glossary Off
Versions: 1 2 3 4 5 6 7 8 9 10 11 12 13 14 15 16 17 18 19 20 21 22 23 24 25 26 27 28 29 30 31 32 33 34 35 36 37 38 39 40 41 42 43 44 45 46 47 48 49 50

654
ASUS44 KJAN 150310
RWRMS

MISSISSIPPI HOURLY WEATHER ROUNDUP
NATIONAL WEATHER SERVICE JACKSON MS
1000 PM CDT MON APR 14 2014

NOTE: "FAIR: INDICATES FEW OR NO CLOUDS BELOW 12,000 FEET WITH NO
SIGNIFICANT WEATHER AND/OR OBSTRUCTIONS TO VISIBILITY.

MSZ001>002-007>008-010>013-018>021-025>028-034>036-150400-
NORTHWEST MISSISSIPPI

CITY           SKY/WX    TMP DP  RH WIND       PRES   REMARKS
CLARKSDALE       N/A     46  41  81 NW16      30.01S
CLEVELAND      CLOUDY    46  42  87 N24G32    29.99S
GREENWOOD      LGT RAIN  47  44  90 N15G23    29.95S
GREENVILLE     CLOUDY    47  41  80 NW22G33   29.99R
GRENADA        CLOUDY    45  43  93 NW15G22   29.95S
OLIVE BRANCH   CLOUDY    43  43 100 N21G30    29.98R
OXFORD         LGT RAIN  45  43  93 N13       29.96R
TUNICA         CLOUDY    45  39  81 N18G24    30.01R
$$

MSZ003>006-009-014>017-022>024-029>033-037>039-150400-
NORTHEAST MISSISSIPPI

CITY           SKY/WX    TMP DP  RH WIND       PRES   REMARKS
BELMONT        DRIZZLE   51  49  95 NW5       29.86F
COLUMBUS AFB   CLOUDY    54  54 100 NW16      29.85F
CORINTH        LGT RAIN  46  43  87 NW9G17    29.92R
GOLDN TRIANGLE CLOUDY    54  50  87 NW12      29.88S
STARKVILLE     CLOUDY    52  50  93 NW9G21    29.89R
TUPELO         CLOUDY    50  47  89 N13       29.88R
$$

MSZ040-058-150400-
CENTRAL MISSISSIPPI

CITY           SKY/WX    TMP DP  RH WIND       PRES   REMARKS
JACKSON INTL   CLOUDY    50  47  89 N18G30    29.92R
JACKSON HAWKNS CLOUDY    50  45  83 N9G22     29.92R
MERIDIAN KEY   LGT RAIN  62  61  96 NE3       29.80F
MERIDIAN NAS   LGT RAIN  62  61  96 CALM      29.81F
RAYMOND        CLOUDY    48  43  81 NW8G17    29.95R
VICKSBURG      CLOUDY    51  44  77 N12G22    29.99R
$$

MSZ059>079-150400-
SOUTH MISSISSIPPI

CITY           SKY/WX    TMP DP  RH WIND       PRES   REMARKS
BROOKHAVEN     HVY RAIN  52  50  93 N13G23    29.88R
COLUMBIA       LGT RAIN  63  61  94 MISG      29.84R
HATTIESBURG    CLOUDY    64  62  93 CALM      29.83R
MCCOMB         LGT RAIN  54  52  93 NW12      29.87R
NATCHEZ        CLOUDY    48  45  87 N16G23    29.95R
PINE BELT      MOCLDY    61  57  88 NW3       29.83R
$$

MSZ080>082-150400-
COASTAL MISSISSIPPI

CITY           SKY/WX    TMP DP  RH WIND       PRES   REMARKS
BILOXI         LGT RAIN  68  68 100 N10       29.81R FOG
PASCAGOULA     LGT RAIN  66  66 100 E3        29.80R
GULFPORT       LGT RAIN  69  65  86 N10       29.79R
$$



USA.gov is the U.S. government's official web portal to all federal, state and local government web resources and services.